Station KVAF - East Breaks 643 / Boomvang Spar (Anadarko) Image indicating link to RSS feed of recent meteorological observations for station KVAF


Conditions at KVAF as of
(7:20 am CDT)
1220 GMT on 06/24/2024:
     

Click on the graph icon in the table below to see a time series plot of the last five days of that observation.

5-day plot - Wind Direction Wind Direction (WDIR): E ( 100 deg true )
5-day plot - Wind Speed Wind Speed (WSPD): 7.0 kts
5-day plot - Air Temperature Air Temperature (ATMP): 84.2 °F
5-day plot - Dew Point Dew Point (DEWP): 77.0 °F
5-day plot - Visibility Visibility (VIS): 5.2 nmi
Previous observations
TIME
(CDT)
5-day plot - Wind Direction
WDIR
 
5-day plot - Wind Speed
WSPD
kts
5-day plot - Wind Gust
GST
kts
5-day plot - Wave Height
WVHT
ft
5-day plot - Dominant Wave Period
DPD
sec
5-day plot - Average Wave Period
APD
sec
5-day plot - Mean Wave Direction
MWD
 
5-day plot - Atmospheric Pressure
PRES
in
5-day plot - Pressure Tendency
PTDY
in
5-day plot - Air Temperature
ATMP
°F
5-day plot - Water Temperature
WTMP
°F
5-day plot - Dew Point
DEWP
°F
5-day plot - Salinity
SAL
psu
5-day plot - Visibility
VIS
nmi
5-day plot - Tide (above MLLW)
TIDE
ft
2024-06-24 07:00 am E 6.0------- 84.2- 75.2- 6.1-
2024-06-24 06:40 am E 6.0------- 84.2- 75.2- 6.1-
2024-06-24 06:20 amESE 5.1------- 84.2- 75.2- 7.0-
2024-06-24 06:00 am- 0.0------- 84.2- 75.2- 7.0-
2024-06-24 05:40 amSSE 5.1------- 82.4- 75.2- 7.0-
2024-06-24 05:20 amESE 5.1------- 82.4- 77.0- 6.1-
2024-06-24 05:00 am N- 9.9------ 82.4- 71.6- 2.6-
2024-06-24 04:40 amESE 8.0------- 84.2- 75.2- 7.0-
2024-06-24 04:20 am SE 2.9------- 84.2- 77.0- 6.1-
2024-06-24 04:00 am SE 6.0------- 82.4- 77.0- 7.0-
2024-06-24 03:40 am SE 4.1------- 84.2- 77.0- 7.8-
2024-06-24 03:20 amESE 6.0------- 82.4- 75.2- 6.1-
2024-06-24 03:00 amESE 8.9------- 82.4- 75.2- 7.0-
2024-06-24 02:40 amESE 7.0------- 84.2- 75.2- 7.0-
2024-06-24 02:20 amESE 6.0------- 84.2- 75.2- 7.0-
2024-06-24 02:00 amESE 8.9------- 84.2- 75.2- 6.1-
2024-06-24 01:40 amESE 6.0 11.1------ 84.2- 75.2- 6.1-
2024-06-24 01:20 amESE 7.0------- 84.2- 75.2- 5.2-
2024-06-24 01:00 amESE 8.9------- 84.2- 75.2- 5.2-
2024-06-24 12:40 amESE 7.0------- 84.2- 75.2- 6.1-
2024-06-24 12:20 amESE 5.1 9.9------ 84.2- 75.2- 6.1-
2024-06-24 12:00 am E 12.0------- 84.2- 75.2- 6.1-
2024-06-23 11:40 pm E 9.9------- 84.2- 75.2- 6.1-
2024-06-23 11:20 pmESE 8.9------- 84.2- 75.2- 6.1-
2024-06-23 11:00 pmESE 8.9------- 84.2- 75.2- 7.0-
2024-06-23 10:40 pm E 12.0------- 84.2- 75.2- 6.1-
2024-06-23 10:20 pm E 8.9------- 84.2- 73.4- 7.0-
2024-06-23 10:00 pm E 8.9------- 84.2- 73.4- 7.8-
2024-06-23 09:40 pm E 8.0------- 84.2- 75.2- 7.8-
2024-06-23 09:20 pm E 8.9------- 84.2- 75.2- 6.1-
2024-06-23 09:00 pm E 8.0------- 84.2- 75.2- 7.0-
2024-06-23 08:40 pm E 8.9------- 84.2- 75.2- 7.0-
2024-06-23 08:20 pm E 8.9------- 84.2- 75.2- 7.8-
2024-06-23 08:00 pm E 9.9------- 84.2- 73.4- 7.0-
2024-06-23 07:40 pm E 9.9------- 84.2- 73.4- 7.8-
2024-06-23 07:20 pmENE 9.9------- 84.2- 75.2- 6.1-
2024-06-23 07:00 pmENE 8.9------- 84.2- 75.2- 7.0-
2024-06-23 06:40 pmENE 8.9------- 84.2- 75.2- 7.0-
2024-06-23 06:20 pmENE 8.9------- 84.2- 73.4- 7.8-
2024-06-23 06:00 pmENE 7.0------- 84.2- 73.4- 7.8-
2024-06-23 05:40 pmENE 7.0------- 86.0- 73.4- 7.0-
2024-06-23 05:20 pm NE 8.0------- 86.0- 73.4- 7.8-
2024-06-23 05:00 pmENE 6.0------- 87.8- 75.2- 6.1-
2024-06-23 04:40 pm NE 5.1------- 87.8- 75.2- 6.1-
2024-06-23 04:20 pmENE 6.0------- 89.6- 73.4- 7.0-
2024-06-23 04:00 pmENE 5.1------- 89.6- 73.4- 6.1-
2024-06-23 03:40 pmENE 4.1------- 87.8- 75.2- 7.0-
2024-06-23 03:20 pmENE 6.0------- 89.6- 75.2- 6.1-
2024-06-23 03:00 pm E 2.9------- 91.4- 73.4- 6.1-
2024-06-23 02:40 pm- 0.0------- 91.4- 73.4- 6.1-
2024-06-23 02:20 pm- 0.0------- 89.6- 73.4- 5.2-
2024-06-23 02:00 pm- 0.0------- 91.4- 73.4- 5.2-
2024-06-23 01:40 pm- 0.0------- 91.4- 73.4- 6.1-
2024-06-23 01:20 pm- 0.0------- 89.6- 73.4- 6.1-
2024-06-23 01:00 pmSSE 4.1------- 89.6- 75.2- 5.2-
2024-06-23 12:40 pm- 0.0------- 89.6- 73.4- 6.1-
2024-06-23 12:20 pm SE 2.9------- 89.6- 75.2- 5.2-
2024-06-23 12:00 pmESE 6.0------- 87.8- 75.2- 5.2-
2024-06-23 11:40 am E 6.0------- 89.6- 75.2- 5.2-
2024-06-23 11:20 amESE 6.0------- 87.8- 75.2- 6.1-
2024-06-23 11:00 amESE 7.0------- 87.8- 75.2- 5.2-
2024-06-23 10:40 am E 8.9------- 87.8- 75.2- 4.3-
2024-06-23 10:20 am E 8.9------- 86.0- 75.2- 5.2-
2024-06-23 10:00 am E 8.0------- 86.0- 75.2- 5.2-
2024-06-23 09:40 am E 9.9------- 86.0- 75.2- 5.2-
2024-06-23 09:20 am E 11.1------- 86.0- 75.2- 4.3-
2024-06-23 09:00 amENE 12.0------- 86.0- 75.2- 4.3-
2024-06-23 08:40 amENE 14.0------- 86.0- 75.2- 4.3-
2024-06-23 08:20 amENE 13.0------- 84.2- 75.2- 5.2-
2024-06-23 08:00 amENE 13.0------- 82.4- 75.2- 5.2-
2024-06-23 07:40 amENE 12.0------- 84.2- 75.2- 5.2-
2024-06-23 07:20 am E 9.9------- 82.4- 75.2- 5.2-
2024-06-23 07:00 am E 11.1------- 82.4- 77.0- 5.2-